Bloomington, IN

1:04 AM EST on February 23, 2017 (GMT -0500)
Monroe County

Weather History for KBMG - March, 2014

Change the Weather History Date:

Wednesday, March 12, 2014

  Actual Average Record
Temperature  
Mean Temperature 42 °F 41 °F  
Max Temperature 60 °F 53 °F 71 °F (2012)
Min Temperature 24 °F 30 °F 6 °F (1998)
Degree Days  
Heating Degree Days 23 24  
Month to date heating degree days 356 309  
Since 1 July heating degree days 4918 4377  
Cooling Degree Days 0 0  
Month to date cooling degree days 0 0  
Year to date cooling degree days 0 0  
Moisture  
Dew Point 33 °F    
Average Humidity 73    
Maximum Humidity 93    
Minimum Humidity 52    
Precipitation  
Precipitation 0.49 in 0.10 in 2.61 in (2006)
Month to date precipitation 0.90 1.09  
Year to date precipitation 5.55 7.16  
Sea Level Pressure  
Sea Level Pressure 29.68 in    
Wind  
Wind Speed 12 mph (NNW)    
Max Wind Speed 28 mph    
Max Gust Speed 37 mph    
Visibility 6 miles    
Events Rain , Snow , Thunderstorm    
T = Trace of Precipitation, MM = Missing Value Source: NWS Daily Summary

Daily Weather History Graph

Daily Weather History Graph

Search for Another Location

Airport or City:

Trip Planner

Search our weather history database for the weather conditions in past years. The results will help you decide how hot, cold, wet, or windy it might be!

Date:

Astronomy

Mar. 12, 2014 Rise Set
Actual Time 8:02 AM EDT 7:50 PM EDT
Civil Twilight 7:35 AM EDT 8:17 PM EDT
Nautical Twilight 7:04 AM EDT 8:48 PM EDT
Astronomical Twilight 6:33 AM EDT 9:19 PM EDT
Moon 4:21 PM EDT (3/12) 5:32 AM EDT (3/12)
Length of Visible Light 12h 41m
Length of Day
11h 48m
Waxing Gibbous, 85% of the Moon is Illuminated
Mar 12
Waxing Gibbous
Mar 16
Full
Mar 23
Last Quarter
Mar 30
New
Apr 7
First Quarter

Hourly Weather History & Observations

Time (EDT) Temp. Windchill Dew Point Humidity Pressure Visibility Wind Dir Wind Speed Gust Speed Precip Events Conditions
12:53 AM 55.0 °F - 52.0 °F 89% 29.48 in 6.0 mi Calm Calm - 0.04 in Rain Rain
1:22 AM 55.0 °F - 52.0 °F 89% 29.48 in 1.8 mi South 6.9 mph - 0.17 in Rain Heavy Rain
1:43 AM 55.0 °F - 53.1 °F 93% 29.45 in 2.5 mi SSE 9.2 mph - 0.30 in Rain Rain
1:53 AM 55.0 °F - 53.1 °F 93% 29.42 in 6.0 mi SE 9.2 mph - 0.30 in Rain Light Rain
2:53 AM 55.0 °F - 52.0 °F 89% 29.39 in 8.0 mi SSE 12.7 mph - 0.01 in   Overcast
3:27 AM 54.0 °F - 52.0 °F 93% 29.38 in 8.0 mi SSE 10.4 mph - 0.00 in   Overcast
3:53 AM 55.0 °F - 52.0 °F 89% 29.35 in 10.0 mi South 6.9 mph - 0.00 in   Overcast
4:53 AM 59.0 °F - 53.1 °F 81% 29.29 in 10.0 mi SSW 10.4 mph - N/A   Overcast
5:53 AM 57.9 °F - 55.0 °F 90% 29.27 in 9.0 mi West 8.1 mph - 0.05 in Rain Light Rain
6:01 AM 52.0 °F - 50.0 °F 93% 29.33 in 1.8 mi NW 12.7 mph 32.2 mph 0.11 in Rain Heavy Rain
6:09 AM 48.0 °F - 45.0 °F 89% 29.34 in 2.5 mi NNW 10.4 mph 23.0 mph 0.12 in Rain , Thunderstorm Light Rain
6:14 AM 46.0 °F 42.5 °F 44.1 °F 93% 29.34 in 5.0 mi Variable 6.9 mph 18.4 mph 0.13 in Rain , Thunderstorm Light Rain
6:21 AM 45.0 °F 39.7 °F 42.1 °F 90% 29.34 in 4.0 mi NNW 10.4 mph 17.3 mph 0.13 in Rain , Thunderstorm Light Rain
6:33 AM 42.1 °F 35.7 °F 39.0 °F 89% 29.34 in 6.0 mi North 11.5 mph 20.7 mph 0.13 in   Overcast
6:53 AM 41.0 °F 32.5 °F 37.9 °F 89% 29.37 in 9.0 mi North 17.3 mph 24.2 mph 0.13 in Rain Light Rain
7:45 AM 39.0 °F 30.3 °F 35.1 °F 86% 29.42 in 10.0 mi North 16.1 mph 35.7 mph 0.00 in   Overcast
7:53 AM 37.9 °F 27.9 °F 34.0 °F 86% 29.43 in 10.0 mi North 19.6 mph 35.7 mph 0.00 in   Overcast
8:53 AM 36.0 °F 26.0 °F 30.9 °F 82% 29.51 in 9.0 mi NNW 17.3 mph 33.4 mph N/A   Overcast
9:24 AM 35.1 °F 25.5 °F 32.0 °F 89% 29.57 in 2.0 mi NNW 15.0 mph 28.8 mph 0.01 in Snow Light Snow
9:41 AM 34.0 °F 26.0 °F 30.9 °F 89% 29.58 in 1.5 mi NNW 10.4 mph 26.5 mph 0.01 in Snow Light Snow
9:53 AM 34.0 °F 25.5 °F 30.9 °F 89% 29.60 in 1.5 mi NNW 11.5 mph 26.5 mph 0.02 in Snow Light Snow
10:10 AM 34.0 °F 25.0 °F 30.9 °F 89% 29.60 in 2.0 mi NNW 12.7 mph 26.5 mph 0.00 in Snow Light Snow
10:13 AM 34.0 °F 24.6 °F 30.9 °F 89% 29.60 in 3.0 mi North 13.8 mph 26.5 mph 0.00 in Snow Light Snow
10:35 AM 34.0 °F 23.4 °F 30.9 °F 89% 29.63 in 2.0 mi NNW 17.3 mph 29.9 mph 0.00 in Snow Light Snow
10:43 AM 34.0 °F 24.2 °F 30.0 °F 85% 29.63 in 1.0 mi North 15.0 mph 29.9 mph 0.01 in Snow Light Snow
10:53 AM 33.1 °F 23.0 °F 30.0 °F 89% 29.65 in 1.0 mi NNW 15.0 mph 26.5 mph 0.01 in Snow Light Snow
11:07 AM 33.1 °F 23.0 °F 30.0 °F 89% 29.66 in 0.8 mi NNW 15.0 mph 28.8 mph 0.00 in Snow Light Snow
11:20 AM 34.0 °F 25.0 °F 30.0 °F 85% 29.67 in 1.2 mi NNW 12.7 mph 25.3 mph 0.00 in Snow Light Snow
11:32 AM 34.0 °F 23.8 °F 30.0 °F 85% 29.68 in 3.0 mi North 16.1 mph 25.3 mph 0.00 in Snow Light Snow
11:51 AM 33.8 °F 24.3 °F 30.2 °F 87% 29.70 in 1.8 mi NNW 13.8 mph 25.3 mph 0.00 in Snow Light Snow
11:53 AM 33.1 °F 23.4 °F 30.0 °F 89% 29.71 in 1.8 mi North 13.8 mph 21.9 mph 0.00 in Snow Light Snow
12:06 PM 34.0 °F 24.2 °F 30.0 °F 85% 29.71 in 2.5 mi North 15.0 mph 26.5 mph 0.00 in Snow Light Snow
12:11 PM 34.0 °F 24.6 °F 30.0 °F 85% 29.71 in 3.0 mi NNW 13.8 mph 26.5 mph 0.00 in Snow Light Snow
12:31 PM 34.0 °F 24.6 °F 28.9 °F 82% 29.73 in 8.0 mi NNW 13.8 mph 24.2 mph 0.00 in   Overcast
12:45 PM 34.0 °F 24.2 °F 28.9 °F 82% 29.74 in 6.0 mi North 15.0 mph 24.2 mph 0.00 in Snow Light Snow
12:53 PM 33.1 °F 21.5 °F 28.0 °F 82% 29.76 in 4.0 mi North 19.6 mph 32.2 mph 0.00 in Snow Light Snow
1:07 PM 33.1 °F 21.9 °F 27.0 °F 78% 29.76 in 9.0 mi North 18.4 mph 32.2 mph 0.00 in   Overcast
1:53 PM 33.1 °F 23.4 °F 27.0 °F 78% 29.81 in 10.0 mi North 13.8 mph 27.6 mph 0.00 in   Overcast
2:53 PM 34.0 °F 25.5 °F 26.1 °F 73% 29.83 in 10.0 mi NNW 11.5 mph 28.8 mph N/A   Overcast
3:36 PM 35.1 °F 25.2 °F 27.0 °F 72% 29.84 in 10.0 mi North 16.1 mph 20.7 mph N/A   Overcast
3:53 PM 36.0 °F 27.5 °F 27.0 °F 70% 29.86 in 10.0 mi NNW 12.7 mph 24.2 mph N/A   Overcast
4:53 PM 37.9 °F 28.5 °F 24.1 °F 57% 29.89 in 10.0 mi North 17.3 mph 21.9 mph N/A   Mostly Cloudy
5:53 PM 35.1 °F 27.4 °F 19.9 °F 54% 29.92 in 10.0 mi North 10.4 mph 23.0 mph N/A   Overcast
6:53 PM 33.1 °F 23.9 °F 21.0 °F 61% 29.98 in 10.0 mi NW 12.7 mph 20.7 mph N/A   Overcast
7:53 PM 30.0 °F 21.1 °F 23.0 °F 75% 30.01 in 8.0 mi North 10.4 mph 17.3 mph 0.00 in Snow Light Snow
8:00 PM 30.0 °F 21.1 °F 23.0 °F 75% 30.00 in 6.0 mi North 10.4 mph 18.4 mph 0.00 in Snow Light Snow
8:22 PM 30.0 °F 21.1 °F 23.0 °F 75% 30.01 in 6.0 mi North 10.4 mph 17.3 mph 0.00 in Snow Light Snow
8:53 PM 28.9 °F 22.8 °F 21.0 °F 72% 30.04 in 10.0 mi NNW 5.8 mph - 0.00 in   Overcast
9:25 PM 28.9 °F 18.6 °F 21.0 °F 72% 30.03 in 10.0 mi North 12.7 mph 19.6 mph N/A   Overcast
9:36 PM 28.0 °F 18.6 °F 19.9 °F 72% 30.03 in 10.0 mi North 10.4 mph - N/A   Overcast
9:53 PM 28.0 °F 21.7 °F 19.0 °F 69% 30.06 in 10.0 mi Variable 5.8 mph - N/A   Overcast
10:29 PM 28.0 °F 21.7 °F 19.0 °F 69% 30.05 in 10.0 mi North 5.8 mph - N/A   Overcast
10:53 PM 27.0 °F 17.3 °F 19.0 °F 72% 30.08 in 10.0 mi North 10.4 mph - N/A   Mostly Cloudy
11:49 PM 26.6 °F 17.5 °F 19.4 °F 74% 30.07 in 10.0 mi North 9.2 mph - N/A   Overcast
11:53 PM 26.1 °F 16.2 °F 19.0 °F 75% 30.09 in 10.0 mi North 10.4 mph - N/A   Overcast